[[{"header":{"parameterUnit":"m.s-1","parameterCategory":1,"la1":30.2992,"la2":30.254,"lo1":-89.0895,"lo2":-89.0443,"dy":0.0025,"dx":0.0025,"nx":19,"ny":19,"refTime":"2026-03-17T03:00:00:Z","depth":0,"parameterNumber":2,"parameterNumberName":"U-component_of_WINDS"},"data":[0,0,0,-0.6764,-0.6765,-0.6768,-0.6768,-0.6788,-0.6788,0,0,0,0,0,0,0,0,0,0,0,-0.6771,-0.6772,-0.6764,-0.6765,-0.6768,-0.6768,-0.6788,-0.6788,0,0,0,0,0,0,0,0,0,0,0,-0.6771,-0.6772,-0.6772,-0.6765,-0.6768,-0.6768,-0.6788,-0.678,0,0,0,0,0,0,0,0,0,0,-0.6774,-0.6788,-0.6772,-0.6772,-0.6765,-0.6768,-0.6768,-0.6779,-0.6781,-0.6793,0,-0.6804,0,-0.6797,-0.679,-0.679,0,0,0,-0.6759,-0.6787,-0.6781,-0.6772,-0.6765,-0.6768,-0.6765,-0.678,-0.6781,-0.6794,-0.6804,-0.6805,-0.6797,-0.6791,-0.6791,-0.6877,-0.6878,0,0,-0.6759,-0.6777,-0.678,-0.6782,-0.6781,-0.6765,-0.6765,-0.678,-0.6793,-0.6804,-0.6805,-0.6797,-0.6791,-0.6791,-0.6877,-0.6877,0,0,0,-0.6762,-0.6777,-0.677,-0.6782,-0.6781,-0.6765,-0.6765,-0.6792,-0.6789,-0.6805,-0.6797,-0.6791,-0.6791,-0.6876,-0.6877,-0.6927,0,0,0,-0.6762,-0.6779,-0.677,-0.6781,-0.6781,-0.6786,-0.6777,-0.6788,-0.6789,-0.6797,-0.6791,-0.6792,-0.6875,-0.6876,-0.6924,-0.6948,0,0,0,-0.6769,-0.6779,-0.6782,-0.6782,-0.6783,-0.6786,-0.6782,-0.6787,-0.6784,-0.679,-0.6792,-0.6874,-0.6876,-0.6921,-0.6944,-0.6977,0,0,0,-0.6781,-0.6827,-0.6783,-0.6832,-0.6784,-0.6816,-0.6782,-0.6806,-0.6817,-0.6791,-0.6875,-0.6877,-0.6921,-0.6941,-0.6974,-0.7009,-0.7024,0,0,-0.6849,-0.6836,-0.6863,-0.6824,-0.6869,-0.6814,-0.6867,-0.6861,-0.6846,-0.6868,-0.687,-0.6925,-0.6943,-0.6976,-0.7105,-0.7117,0,0,0,-0.689,-0.691,-0.6918,-0.6929,-0.6925,-0.6925,-0.6908,-0.6906,-0.6924,-0.686,-0.6945,-0.6956,-0.6974,-0.699,-0.7001,-0.7016,-0.6884,-0.6884,-0.6884,-0.7011,-0.6989,-0.7033,-0.7012,-0.7024,-0.7007,-0.7015,-0.701,-0.6984,-0.7005,-0.7011,-0.7092,-0.7111,-0.7118,-0.7135,-0.7027,-0.7027,-0.7027,-0.7027,-0.7109,-0.7134,-0.71,-0.713,-0.7107,-0.7133,-0.7119,-0.7101,-0.7122,-0.7084,-0.71,-0.7061,-0.7133,-0.7146,-0.7031,-0.703,-0.703,-0.7029,-0.7029,-0.7187,-0.7195,-0.7192,-0.7206,-0.7221,-0.7198,-0.7221,-0.7199,-0.7179,-0.7194,-0.72,-0.7199,-0.7196,-0.7198,-0.7198,-0.7199,-0.7199,-0.7199,-0.7199,-0.7269,-0.7263,-0.7284,-0.7285,-0.729,-0.7294,-0.7279,-0.7284,-0.7284,-0.7267,-0.7267,-0.7241,-0.7143,-0.712,-0.7203,-0.7203,-0.7202,-0.7202,-0.7201,-0.7378,-0.735,-0.7383,-0.7388,-0.7387,-0.7404,-0.7376,-0.7389,-0.739,-0.7402,-0.7372,-0.7304,-0.7289,-0.728,-0.7261,-0.7376,-0.7376,-0.7376,-0.7376,-0.7444,-0.7434,-0.7463,-0.7473,-0.7481,-0.7459,-0.7499,-0.7489,-0.7474,-0.7473,-0.7454,-0.7426,-0.7418,-0.7408,-0.7397,-0.7378,-0.752,-0.752,-0.752,-0.7511,-0.7501,-0.7538,-0.7522,-0.752,-0.752,-0.7557,-0.7572,-0.7549,-0.7526,-0.7473,-0.7467,-0.7422,-0.7408,-0.7384,-0.7367,-0.7333,0,0]},{"header":{"parameterUnit":"m.s-1","parameterCategory":1,"la1":30.2992,"la2":30.254,"lo1":-89.0895,"lo2":-89.0443,"dy":0.0025,"dx":0.0025,"nx":19,"ny":19,"refTime":"2026-03-17T03:00:00:Z","depth":0,"parameterNumber":3,"parameterNumberName":"V-component_of_WINDS"},"data":[0,0,0,2.2696,2.2695,2.2665,2.2665,2.2627,2.2627,0,0,0,0,0,0,0,0,0,0,0,2.2707,2.2706,2.2696,2.2695,2.2665,2.2665,2.2627,2.2627,0,0,0,0,0,0,0,0,0,0,0,2.2707,2.2707,2.2706,2.2695,2.2665,2.2665,2.2627,2.2649,0,0,0,0,0,0,0,0,0,0,2.2678,2.2691,2.2707,2.2706,2.2695,2.2665,2.2665,2.265,2.2648,2.2641,0,2.2638,0,2.2632,2.2625,2.2624,0,0,0,2.2693,2.2693,2.2683,2.2706,2.2695,2.2665,2.2678,2.2649,2.2646,2.2638,2.2638,2.2636,2.2631,2.2624,2.2624,2.2598,2.2598,0,0,2.2695,2.2702,2.2685,2.2681,2.2688,2.2679,2.2677,2.2647,2.2646,2.2637,2.2635,2.2631,2.2624,2.2624,2.2598,2.2598,0,0,0,2.2701,2.2703,2.2694,2.2683,2.2678,2.2678,2.2676,2.2647,2.2644,2.2635,2.263,2.2624,2.2624,2.2598,2.2598,2.2604,0,0,0,2.2702,2.2707,2.2695,2.2699,2.2678,2.2663,2.2677,2.2646,2.2642,2.2631,2.2624,2.2623,2.2598,2.2598,2.2604,2.2605,0,0,0,2.2708,2.2708,2.2704,2.27,2.2687,2.2663,2.2658,2.2645,2.264,2.2624,2.2623,2.2598,2.2598,2.2604,2.2605,2.26,0,0,0,2.2716,2.271,2.2704,2.2695,2.2688,2.2668,2.2658,2.2642,2.263,2.2624,2.2598,2.2598,2.2604,2.2605,2.26,2.2597,2.2597,0,0,2.2712,2.271,2.2704,2.2698,2.2681,2.2672,2.2655,2.2636,2.2627,2.2607,2.2607,2.2604,2.2605,2.26,2.2593,2.2593,0,0,0,2.2705,2.2701,2.2694,2.2684,2.267,2.2657,2.264,2.2633,2.2616,2.2619,2.2601,2.2601,2.2598,2.2596,2.2596,2.2592,2.2597,2.2597,2.2597,2.271,2.2699,2.2688,2.2674,2.2663,2.2646,2.2635,2.2622,2.2614,2.261,2.2604,2.2601,2.2599,2.2599,2.2595,2.2602,2.2602,2.2602,2.2602,2.2703,2.2695,2.2684,2.267,2.2658,2.2646,2.2627,2.2622,2.2607,2.2605,2.2601,2.26,2.2599,2.2595,2.2602,2.2602,2.2602,2.2602,2.2602,2.2704,2.2699,2.2691,2.2673,2.2661,2.2646,2.2632,2.2621,2.2611,2.2608,2.26,2.2599,2.2597,2.2605,2.2605,2.2605,2.2605,2.2605,2.2605,2.2709,2.27,2.2691,2.2675,2.2666,2.2653,2.2634,2.2624,2.261,2.2604,2.2603,2.2595,2.2602,2.2604,2.2604,2.2605,2.2605,2.2605,2.2605,2.2706,2.2705,2.269,2.2682,2.2661,2.2649,2.2635,2.2616,2.2606,2.2599,2.2592,2.2599,2.2595,2.2595,2.2596,2.2595,2.2595,2.2595,2.2595,2.2707,2.2704,2.2687,2.2673,2.2658,2.2645,2.2626,2.2611,2.2594,2.2587,2.2586,2.2586,2.2587,2.2582,2.2583,2.2584,2.2579,2.2579,2.2579,2.2703,2.2699,2.2686,2.2672,2.2655,2.264,2.2622,2.2605,2.2586,2.2578,2.2581,2.2581,2.2583,2.2584,2.2577,2.2578,2.2579,0,0]}]]